Zurück zum Katalog

STARLINK-37997

AktivKommunikationSSO
NORAD 69682·PAYLOAD·🇺🇸 United States

Gestartet Jun 25, 2026 von Vandenberg Space Force Base

Loading…

Nächste Überflüge (nächste 24 Stunden)

TLE

AktuellSource: CelesTrak SupGP

Epoche: Sep 14, 2026, 23:15 UTC

1 69682C 26145F   26257.96923611  .00085887  00000+0  26667-2 0  2579
2 69682  97.2847 104.6782 0001938  93.2898 258.3606 15.33388373    13

Verfolge STARLINK-37997 in Echtzeit mit AllMySat

Download on the App Store